User: anonymous   Login
Location: Unspecified
(0.0000°N, 0.0000°E)
Time: 18:18:51
(UTC+00:00)
Language:

Vanguard 3 - Orbit

View from above orbital plane
View from above orbital plane
View from above satellite
View from above satellite

Ground track
Ground track

The orbit data is extracted from the following two-line orbital elements,

1    20U 59007A   19107.81045913 +.00000338 +00000-0 +13414-3 0  9992
2    20 033.3425 261.9253 1665620 163.6481 202.5225 11.55619529181267
Epoch (UTC): 17 April 2019 19:27:03
Eccentricity: 0.1665620
inclination: 33.3425°
perigee height: 509 km
apogee height: 3262 km
right ascension of ascending node: 261.9253°
argument of perigee: 163.6481°
revolutions per day: 11.55619529
mean anomaly at epoch: 202.5225°
orbit number at epoch: 18126

The dashed part of the orbit path shows where the satellite is in the earth's shadow,  

DLR